Theta_e
326 332 346 348 348 349 348 348 348 348 348 348 348 347 347 346 345 345 347 348 348 347 347 346 346 346 345 344 344 343 341 342 341 341 342 342 344 346 345 349 348 346 350
328 333 344 346 348 348 346 347 349 348 348 347 346 345 344 343 341 340 342 342 343 344 344 343 342 342 341 342 342 340 339 338 338 337 339 337 339 351 343 349 349 348 350
329 333 339 346 348 348 347 347 347 347 346 346 345 343 340 340 338 336 336 338 339 339 339 337 335 335 336 335 335 334 334 333 333 331 332 329 331 350 350 349 349 349 349
328 330 333 342 345 346 346 347 347 345 343 342 340 338 337 337 335 334 334 334 335 336 335 333 331 330 329 330 329 328 327 327 325 321 319 325 330 347 347 346 345 345 346
323 326 330 339 341 341 341 341 340 340 340 338 337 337 334 332 330 328 327 328 332 331 328 326 324 322 322 322 322 321 321 321 318 313 314 323 326 338 345 345 343 343 344
319 323 332 338 339 339 339 339 337 340 337 335 334 332 330 327 325 324 324 324 324 323 322 321 320 319 319 319 319 320 318 317 312 307 315 316 321 341 344 343 342 342 342
315 320 327 337 337 337 337 336 336 336 334 332 330 328 326 324 323 322 322 322 322 321 320 319 319 319 319 317 317 316 315 311 301 300 305 312 320 338 341 341 340 339 338
314 317 323 330 333 335 335 335 334 333 330 327 325 324 323 322 321 320 320 320 320 319 319 319 319 317 316 316 314 313 312 308 300 299 302 308 321 329 331 332 333 335 336
312 314 316 320 324 329 331 332 331 329 326 324 323 322 320 320 319 319 319 318 318 318 318 315 315 314 314 313 312 309 307 306 294 297 301 306 318 324 325 325 325 326 327
308 310 311 313 316 316 318 325 326 325 324 321 320 319 318 317 316 315 318 316 316 316 314 312 311 310 310 309 307 305 303 301 293 295 297 306 316 320 322 321 321 322 322
306 307 307 308 309 310 311 315 320 322 321 319 317 315 309 300 302 303 311 313 313 313 311 309 307 305 303 303 304 302 299 292 292 293 295 307 312 316 319 319 320 321 321
302 303 304 304 305 305 309 307 306 308 306 304 302 300 296 295 297 301 306 309 308 308 308 306 304 300 295 290 291 295 290 290 290 291 294 304 309 313 316 317 318 319 320
302 302 303 303 302 302 303 302 300 299 297 296 296 294 293 294 297 295 294 292 291 295 290 292 290 290 289 289 289 288 289 289 288 290 294 302 306 309 312 314 316 318 319
298 301 301 301 300 299 299 299 297 296 294 293 293 293 292 292 290 290 289 289 288 288 287 288 288 288 288 289 289 288 288 288 288 289 291 298 302 306 309 312 316 316 316
297 298 299 299 300 300 297 297 295 294 295 293 292 293 292 291 289 289 288 287 287 287 287 286 286 287 287 288 288 287 287 287 287 288 288 296 300 304 308 311 312 314 315
296 296 298 298 299 298 297 296 296 294 294 292 291 292 292 290 289 289 288 287 286 286 286 286 286 285 286 286 286 287 287 287 287 287 287 288 298 302 306 310 310 312 313
296 296 295 297 298 297 296 295 294 294 294 293 291 291 291 290 289 288 287 286 286 286 286 286 285 285 284 285 285 286 287 287 286 286 287 288 290 297 303 306 307 308 311
297 295 295 297 296 297 296 294 294 294 294 293 290 290 290 290 289 287 287 286 285 285 285 284 284 283 283 283 283 284 284 285 286 286 287 288 289 291 296 303 304 306 306
298 297 294 295 295 295 295 295 294 293 293 293 290 289 289 289 289 288 286 285 285 284 284 284 283 283 282 282 283 283 283 283 284 287 286 288 288 290 288 299 297 297 301
298 298 295 295 295 295 295 293 291 291 292 290 291 290 289 289 288 287 285 285 285 284 283 283 282 282 282 281 283 283 282 283 284 284 283 285 286 286 288 288 287 288 295
296 296 295 293 294 294 292 290 291 291 291 290 290 290 288 288 288 286 285 284 284 283 283 282 282 281 281 281 280 281 281 283 282 282 283 283 284 286 285 285 286 286 287
296 296 295 294 294 294 294 294 293 293 290 291 289 288 288 287 287 286 285 284 283 282 282 282 282 280 281 280 279 279 278 280 282 282 282 283 282 283 284 285 284 285 285
296 296 295 295 294 294 295 293 287 287 285 285 285 287 287 287 286 286 284 284 283 282 282 281 281 281 280 280 279 279 277 277 277 280 281 281 281 281 282 283 284 284 285
296 297 296 295 294 294 294 292 291 290 289 289 290 289 287 286 285 285 284 283 282 282 281 281 281 280 280 279 280 281 279 278 277 276 280 279 281 281 281 282 282 283 284
295 295 295 294 293 293 293 293 292 291 291 288 286 285 286 285 286 285 284 283 282 281 280 281 280 280 280 279 279 279 278 278 278 277 276 277 279 280 281 281 281 282 283
292 293 293 292 291 292 292 292 291 291 288 285 286 285 285 285 284 283 283 282 281 281 280 280 280 280 280 280 280 279 279 277 277 276 275 275 276 278 279 280 280 281 282
Wind_Speed
5 6 7 14 13 13 15 13 12 13 13 14 14 13 12 11 10 9 9 10 10 9 10 10 11 12 10 9 10 10 10 12 13 13 12 12 11 6 3 5 7 5 8
10 7 8 13 15 13 13 14 15 14 13 13 12 12 11 10 9 7 9 9 7 9 11 10 11 10 10 11 12 11 12 13 14 14 13 12 12 10 3 7 7 6 9
9 7 7 10 14 16 16 15 14 13 12 11 11 11 9 8 8 7 6 7 7 7 8 7 7 8 10 11 11 11 13 14 15 16 14 7 7 11 13 12 11 12 11
8 5 6 9 11 14 15 15 14 13 10 11 9 8 6 8 8 8 7 7 8 8 8 7 8 9 10 10 11 12 13 13 15 14 7 7 8 9 11 12 12 13 13
8 7 6 10 12 12 10 12 11 10 11 11 10 10 9 9 9 9 8 8 9 10 9 9 9 9 9 11 12 12 13 13 13 10 6 6 6 8 10 11 11 12 12
6 6 10 13 13 13 13 13 13 13 13 13 13 13 12 11 10 10 9 9 9 9 9 9 9 10 11 12 12 14 15 15 12 7 6 9 8 6 9 11 12 12 11
7 5 5 13 14 14 15 16 16 15 15 15 15 14 13 12 12 11 11 11 10 10 10 10 10 11 12 12 13 14 15 15 7 6 7 8 8 14 16 15 14 13 14
9 7 6 9 10 12 15 16 16 15 15 14 14 14 13 13 12 11 11 11 11 11 11 11 11 10 12 12 13 14 15 15 8 7 7 7 15 14 14 15 15 14 14
6 6 5 6 7 10 12 13 15 16 16 16 15 14 14 13 13 12 12 11 11 11 11 11 11 10 11 12 12 14 15 15 7 6 8 5 14 14 14 15 15 15 14
5 6 6 6 6 6 6 10 12 13 14 15 15 14 13 13 13 13 10 11 11 11 11 10 11 11 11 12 12 12 13 13 7 6 5 6 14 14 14 14 13 14 14
5 7 6 6 6 6 5 5 9 11 12 13 12 13 9 4 6 7 8 12 12 12 11 10 11 10 10 11 12 12 12 4 5 4 3 13 13 13 12 13 13 13 13
11 9 7 7 7 6 4 5 5 5 4 5 6 6 4 5 5 5 7 11 11 11 11 10 10 9 7 3 3 7 3 4 4 4 3 12 12 12 12 12 12 12 13
9 7 10 8 7 7 5 4 3 2 3 3 6 6 5 4 4 4 3 3 3 6 3 5 4 3 4 3 4 4 4 4 3 3 6 11 10 10 10 11 10 11 13
13 13 10 9 9 7 5 5 5 4 4 4 5 7 5 3 4 4 3 4 3 3 4 3 2 3 4 5 5 5 5 4 3 2 4 8 9 8 8 7 10 11 11
13 14 14 12 12 10 8 5 6 6 5 5 5 6 5 5 5 4 4 4 3 3 3 3 3 3 3 3 3 4 5 5 5 3 2 8 8 7 7 8 8 10 12
15 16 15 16 14 12 11 10 8 6 6 6 5 6 7 5 5 4 4 4 4 3 3 3 3 3 3 3 4 4 4 3 5 5 3 4 8 8 8 8 10 10 11
17 14 18 18 16 16 15 11 9 8 7 7 6 7 7 6 6 6 5 4 4 4 5 4 2 2 2 2 3 4 4 5 4 5 4 3 4 7 7 9 10 10 13
15 18 17 16 18 17 15 12 9 9 8 7 6 5 7 7 8 6 5 5 4 4 4 4 2 2 2 3 4 5 4 4 5 4 4 3 3 3 7 12 11 13 13
19 16 17 19 20 20 15 11 10 10 9 7 6 7 8 8 8 7 5 5 6 4 4 3 1 2 2 3 4 4 4 4 4 3 5 5 5 4 3 10 12 11 12
17 17 16 16 17 17 11 9 5 6 7 6 8 8 10 8 9 7 5 6 5 4 4 2 2 2 2 1 2 3 3 3 3 4 4 3 5 5 5 5 5 5 14
13 17 19 18 19 15 12 11 9 13 9 7 8 11 11 9 10 8 5 6 5 6 5 5 3 3 2 2 1 2 3 4 3 4 4 4 5 5 5 4 3 3 4
18 20 18 20 19 17 14 13 7 10 6 8 7 7 10 10 10 9 9 8 7 5 6 6 4 3 2 2 3 2 3 3 3 3 3 3 5 3 5 5 5 6 5
16 19 20 22 23 20 18 10 4 6 4 3 4 6 8 11 11 10 10 8 8 6 6 5 6 6 4 0 1 3 2 4 2 2 1 1 4 3 4 5 6 6 6
17 14 16 18 19 18 20 17 20 13 12 10 11 9 9 12 12 11 11 9 8 5 6 6 5 4 5 4 1 2 4 4 4 2 2 2 2 3 2 3 4 4 5
11 15 15 15 17 19 19 19 17 16 11 6 5 11 11 10 12 11 11 10 9 6 6 7 6 5 3 3 3 3 2 2 2 3 4 3 3 2 3 3 4 4 3
7 10 12 15 16 18 19 20 22 20 13 10 11 11 11 9 9 11 11 10 8 7 7 6 6 7 5 4 3 4 4 4 4 3 2 3 3 3 3 4 4 3 3
Wind_Direction
217 193 181 169 175 161 149 159 156 148 142 138 132 126 120 113 101 92 77 84 95 95 84 72 60 54 49 49 48 43 30 19 14 7 4 5 2 343 345 54 26 27 28
143 177 185 163 168 162 163 162 147 142 143 142 139 131 119 110 101 104 82 64 69 75 70 63 52 44 42 37 41 32 23 14 13 5 2 6 5 17 80 61 38 42 32
150 163 156 152 145 147 149 152 149 146 143 140 128 108 108 105 112 113 102 79 77 84 80 71 60 40 36 33 27 21 17 15 13 9 5 359 347 47 56 49 39 35 30
154 153 154 156 157 160 164 144 153 147 124 110 98 106 128 119 117 109 101 96 89 83 85 71 59 50 42 38 31 21 17 13 15 17 2 358 351 31 48 45 39 32 28
154 155 163 160 161 150 134 157 149 132 130 123 135 139 138 127 120 110 100 92 90 86 83 74 65 58 50 43 32 23 18 16 20 17 3 5 359 356 46 51 43 37 26
153 160 169 169 170 162 152 159 167 157 142 151 152 150 143 138 129 121 113 104 95 88 80 74 68 64 61 54 42 39 35 33 33 18 12 11 356 12 46 52 42 30 27
154 168 169 171 171 171 172 175 174 164 165 158 157 152 151 146 137 128 122 116 109 98 88 81 76 71 66 56 52 48 41 36 28 23 20 9 2 25 32 35 33 28 19
154 165 168 165 168 174 171 174 172 167 163 160 159 153 151 145 138 132 125 116 111 104 97 85 78 72 64 60 52 46 45 44 27 23 19 14 11 23 18 20 20 13 17
151 155 160 160 169 172 174 173 168 169 165 163 160 159 149 147 140 136 130 122 115 106 98 94 91 83 75 67 57 49 46 45 39 23 19 1 11 17 18 19 14 10 7
169 170 171 164 164 165 162 167 167 169 166 164 161 154 148 147 141 136 128 125 122 115 108 100 91 82 72 64 61 55 48 44 41 29 7 11 13 17 18 17 13 10 6
201 192 181 173 169 160 157 164 163 166 165 162 152 148 131 124 125 119 138 127 122 116 108 99 89 82 74 67 59 52 49 37 39 34 13 18 13 16 15 18 15 11 8
205 201 186 177 173 162 156 154 148 153 148 141 138 133 140 142 137 129 118 125 120 115 111 104 96 86 74 63 48 53 56 52 38 31 19 15 13 14 17 16 18 16 14
203 194 195 183 174 167 165 156 156 152 155 156 161 158 161 152 129 121 107 107 110 104 73 84 83 70 79 66 44 33 33 35 37 30 9 14 13 10 17 20 24 28 26
192 198 189 186 180 181 161 173 168 168 174 179 179 170 158 152 150 149 144 141 124 117 115 94 80 71 54 52 50 39 30 29 19 13 16 6 14 15 24 35 45 42 38
203 196 195 184 188 186 180 174 178 187 184 183 181 180 161 157 166 157 153 152 140 128 132 121 104 80 60 38 45 42 30 19 15 11 11 2 19 35 36 46 59 50 54
205 203 190 192 190 181 189 186 189 185 188 184 183 184 171 160 160 162 159 162 149 147 124 120 102 71 47 20 12 10 19 21 20 7 22 10 21 38 42 50 49 49 46
209 198 194 191 187 188 191 188 186 190 185 188 191 183 170 166 167 161 159 173 169 158 136 123 112 95 60 4 20 2 10 18 18 20 26 23 359 21 38 48 52 52 55
204 200 191 192 190 191 192 189 188 187 186 189 181 174 174 169 169 166 168 176 164 153 147 129 118 92 56 28 349 349 359 9 25 28 34 33 24 18 29 50 39 38 35
204 198 194 192 191 193 191 185 186 184 189 187 172 181 176 175 173 168 170 169 165 155 151 150 117 129 65 7 341 349 357 26 26 31 45 45 35 49 44 57 44 28 16
201 197 194 193 194 190 183 178 167 175 194 178 187 186 175 179 173 168 165 164 160 151 156 153 141 79 94 11 330 360 18 14 72 38 37 29 32 61 69 51 25 12 3
195 191 190 185 192 178 181 177 187 199 194 194 191 185 179 176 175 169 166 165 166 173 169 165 141 133 65 6 89 30 28 68 93 37 32 33 53 59 47 27 26 358 336
198 197 190 195 187 189 189 192 194 188 197 195 181 181 183 176 172 173 175 180 175 160 167 173 159 125 104 3 128 103 29 343 12 34 38 75 51 21 359 355 350 343 350
205 195 195 194 189 188 185 169 100 89 67 119 176 188 190 180 178 178 177 173 177 168 176 176 170 156 149 237 49 143 118 220 346 350 338 7 32 26 336 336 324 326 328
219 207 202 192 191 187 176 176 183 189 185 194 193 188 180 181 181 180 177 172 178 178 175 179 175 162 138 160 81 61 63 124 162 309 316 235 181 281 265 283 292 297 316
193 197 200 190 183 181 184 187 186 192 190 154 148 164 181 187 188 184 179 174 177 177 178 173 165 166 160 143 149 149 100 71 92 147 248 276 296 203 277 262 257 263 255
207 183 181 185 188 184 184 186 192 193 172 155 168 173 180 185 186 185 179 178 175 171 175 180 170 169 178 171 170 168 160 161 183 157 232 288 241 256 274 245 228 235 250